Regional Weather Roundup
Issued by NWS

Current Version | Previous Version | Text Only | Print | Product List | Glossary Off
Versions: 1 2 3 4 5 6 7 8 9 10 11 12 13 14 15 16 17 18 19 20 21 22 23 24 25 26 27 28 29 30 31 32 33 34 35 36 37 38 39 40 41 42 43 44 45 46 47 48 49 50

000
ASUS44 KJAN 262210
RWRMS

MISSISSIPPI HOURLY WEATHER ROUNDUP
NATIONAL WEATHER SERVICE JACKSON MS
500 PM CDT TUE SEP 26 2017

NOTE: "FAIR: INDICATES FEW OR NO CLOUDS BELOW 12,000 FEET WITH NO
SIGNIFICANT WEATHER AND/OR OBSTRUCTIONS TO VISIBILITY.

MSZ001>002-007>008-010>013-018>021-025>028-034>036-262300-
NORTHWEST MISSISSIPPI

CITY           SKY/WX    TMP DP  RH WIND       PRES   REMARKS
BATESVILLE     FAIR      89  62  39 NE3       29.93S
CLARKSDALE       N/A     86  70  58 CALM      29.92F HX  90
CLEVELAND      MOCLDY    87  67  52 NE3       29.91R HX  90
GREENWOOD      MOSUNNY   87  71  58 NE8       29.90S HX  93
GREENVILLE     CLOUDY    86  68  54 NW3       29.90S
OLIVE BRANCH   PTSUNNY  N/A N/A N/A CALM      29.93S
OXFORD         FAIR      84  66  54 NE5       29.94
TUNICA           N/A    N/A N/A N/A CALM      29.93F
WINONA         FAIR      85  69  59 E3        29.91F
$$

MSZ003>006-009-014>017-022>024-029>033-037>039-262300-
NORTHEAST MISSISSIPPI

CITY           SKY/WX    TMP DP  RH WIND       PRES   REMARKS
COLUMBUS AFB   SUNNY     89  67  48 E6        29.90F HX  92
GOLDN TRIANGLE SUNNY     88  64  45 CALM      29.91S
STARKVILLE     FAIR      88  63  42 NE7       29.92S
TUPELO         SUNNY     88  63  43 N7        29.92S
$$

MSZ040-058-262300-
CENTRAL MISSISSIPPI

CITY           SKY/WX    TMP DP  RH WIND       PRES   REMARKS
JACKSON INTL   MOSUNNY   85  74  69 E5        29.89F HX  92
JACKSON HAWKNS SUNNY     87  70  56 E5        29.89S HX  92
MADISON        FAIR      86  68  54 E3        29.89
MERIDIAN KEY   MOSUNNY   89  68  49 E8        29.89F HX  93
MERIDIAN NAS   MOSUNNY   91  66  43 NE5       29.90F HX  93
RAYMOND          N/A     84  70  61 CALM      29.88
VICKSBURG VKS  PTCLDY    82  75  78 CALM      29.90S
$$

MSZ059>079-262300-
SOUTH MISSISSIPPI

CITY           SKY/WX    TMP DP  RH WIND       PRES   REMARKS
COLUMBIA       FAIR      79 N/A N/A SE7G14    29.93R
HATTIESBURG    MOSUNNY   88  70  55 E3        29.88S HX  93
LAUREL         FAIR      88  68  51 SE5       29.88F HX  91
MCCOMB         MOSUNNY   89  67  47 VRB3      29.87F HX  92
NATCHEZ        CLOUDY    86  69  56 E6        29.88F HX  90
PINE BELT      MOSUNNY   88  71  57 NE7       29.89S HX  94
$$

MSZ080>082-262300-
COASTAL MISSISSIPPI

CITY           SKY/WX    TMP DP  RH WIND       PRES   REMARKS
BILOXI         SUNNY     85  74  69 S10       29.87S HX  91
PASCAGOULA     SUNNY     85  71  63 SW6       29.87S HX  90
GULFPORT       SUNNY     85  73  67 SE10      29.87S HX  91
$$

LAZ007>009-015>016-023>026-262300-
NORTHEAST LOUISIANA

CITY           SKY/WX    TMP DP  RH WIND       PRES   REMARKS
BASTROP        MOCLDY    87  69  55 NE6       29.90F HX  90
TALLULAH/VBURG PTSUNNY   85  70  60 NE6       29.89S
VIDALIA          N/A    N/A N/A N/A MISG      29.86S
$$



USA.gov is the U.S. government's official web portal to all federal, state and local government web resources and services.